TimeCET,TemperatureF,Dew PointF,Humidity,Sea Level PressureIn,VisibilityMPH,Wind Direction,Wind SpeedMPH,Gust SpeedMPH,PrecipitationIn,Events,Conditions,WindDirDegrees,DateUTC
12:55 AM,53.6,42.8,67,29.95,-9999.0,ENE,28.8,57.5,N/A,,Clear,60,2012-11-19 23:55:00
1:55 AM,53.6,42.8,67,29.95,-9999.0,ENE,25.3,49.5,N/A,,Clear,60,2012-11-20 00:55:00
5:55 AM,53.6,41.0,62,29.95,-9999.0,ENE,31.1,57.5,N/A,,Clear,60,2012-11-20 04:55:00
6:55 AM,53.6,39.2,58,29.95,-9999.0,ENE,32.2,61.0,N/A,,Clear,60,2012-11-20 05:55:00
7:00 AM,53,40,50,29.97,12,ENE,32.2,,,,Scattered Clouds,60,2012-11-20 06:00:00
7:55 AM,53.6,39.2,58,29.98,-9999.0,ENE,27.6,58.7,N/A,,Clear,60,2012-11-20 06:55:00
8:55 AM,53.6,41.0,62,29.98,-9999.0,ENE,29.9,57.5,N/A,,Clear,60,2012-11-20 07:55:00
9:55 AM,53.6,39.2,58,30.01,-9999.0,ENE,24.2,44.9,N/A,,Clear,60,2012-11-20 08:55:00
10:55 AM,53.6,39.2,58,30.01,-9999.0,ENE,17.3,35.7,N/A,,Clear,60,2012-11-20 09:55:00
11:55 AM,55.4,41.0,58,30.01,-9999.0,ENE,16.1,32.2,N/A,,Clear,60,2012-11-20 10:55:00
12:55 PM,55.4,41.0,58,30.01,-9999.0,ENE,19.6,42.6,N/A,,Clear,60,2012-11-20 11:55:00
1:00 PM,55,42,50,30.03,6,ENE,19.6,,,,Mostly Cloudy,60,2012-11-20 12:00:00
1:55 PM,55.4,41.0,58,30.04,6.2,ENE,12.7,33.4,N/A,,Partly Cloudy,70,2012-11-20 12:55:00
2:55 PM,55.4,41.0,58,30.04,6.2,ENE,16.1,29.9,N/A,,Partly Cloudy,70,2012-11-20 13:55:00
3:55 PM,53.6,41.0,62,30.04,-9999.0,ENE,20.7,36.8,N/A,,Clear,60,2012-11-20 14:55:00
4:55 PM,53.6,41.0,62,30.04,-9999.0,ENE,18.4,38.0,N/A,,Clear,70,2012-11-20 15:55:00
5:55 PM,53.6,41.0,62,30.04,-9999.0,ENE,18.4,36.8,N/A,,Clear,70,2012-11-20 16:55:00
6:55 PM,53.6,41.0,62,30.04,-9999.0,ENE,21.9,41.4,N/A,,Clear,60,2012-11-20 17:55:00
7:00 PM,54,41,51,30.06,12,ENE,21.9,,,,,60,2012-11-20 18:00:00
7:55 PM,53.6,41.0,62,30.06,-9999.0,ENE,20.7,39.1,N/A,,Clear,60,2012-11-20 18:55:00
8:55 PM,53.6,41.0,62,30.06,-9999.0,ENE,17.3,33.4,N/A,,Clear,60,2012-11-20 19:55:00
9:55 PM,51.8,41.0,67,30.06,-9999.0,ENE,16.1,32.2,N/A,,Clear,60,2012-11-20 20:55:00
10:55 PM,51.8,41.0,67,30.06,-9999.0,NE,19.6,44.9,N/A,,Clear,50,2012-11-20 21:55:00
11:55 PM,51.8,41.0,67,30.06,-9999.0,NE,20.7,40.3,N/A,,Clear,50,2012-11-20 22:55:00